This demonstration page uses our WeatherBlox Daily Observations layout. Learn more.

Left ArrowRight Arrow

44.89941, -97.11507

Hourly Observations for May 15, 2019

Temp ( °F °C ) Dew Point ( °F °C ) Humidity (%) Winds ( mph kmh ) Pressure ( in mb ) Visibility ( mi km ) Precip ( " mm )
12:53 am 00:53 Clear 59 15 50 10 72 72 ENE 12 19 29.94 1014 10 16 0.00 0.00
1:53 am 01:53 Clear 59 15 47 8.3 64 64 ENE 12 19 29.95 1014 10 16 0.00 0.00
2:53 am 02:53 Clear 58 14.4 46 7.8 65 65 ENE 8 13 29.95 1014 10 16 0.00 0.00
3:53 am 03:53 Clear 56 13.3 47 8.3 72 72 NE 8 13 29.96 1015 10 16 0.00 0.00
4:53 am 04:53 Cloudy 56 13.3 47 8.3 72 72 ENE 6 9 29.97 1015 10 16 0.00 0.00
5:53 am 05:53 Cloudy 55 12.8 47 8.3 74 74 E 9 15 29.97 1015 10 16 0.00 0.00
6:53 am 06:53 Partly Cloudy 57 13.9 42 5.6 58 58 E 10 17 29.97 1015 10 16 0.00 0.00
7:53 am 07:53 Sunny 58 14.4 43 6.1 58 58 E 12 19 29.97 1015 10 16 0.00 0.00
8:53 am 08:53 Sunny 61 16.1 42 5.6 50 50 E 8 13 29.97 1015 10 16 0.00 0.00
9:53 am 09:53 Sunny 65 18.3 41 5 42 42 ESE 12 19 29.96 1015 10 16 0.00 0.00
10:53 am 10:53 Sunny 68 20 41 5 38 38 ESE 14 22 29.94 1014 10 16 0.00 0.00
11:53 am 11:53 Sunny 70 21.1 40 4.4 34 34 SE 12 19 29.93 1013 10 16 0.00 0.00
12:53 pm 12:53 Sunny 73 22.8 43 6.1 34 34 SE 14 22 29.90 1013 10 16 0.00 0.00
1:53 pm 13:53 Sunny 75 23.9 45 7.2 34 34 SE 15 24 29.87 1011 10 16 0.00 0.00
2:53 pm 14:53 Sunny 76 24.4 48 8.9 37 37 S 17 28 29.84 1011 10 16 0.00 0.00
3:53 pm 15:53 Sunny 76 24.4 53 11.7 45 45 S 18 30 29.82 1010 10 16 0.00 0.00
4:53 pm 16:53 Sunny 77 25 54 12.2 45 45 SSE 18 30 29.78 1008 10 16 0.00 0.00
5:53 pm 17:53 Sunny 77 25 52 11.1 42 42 S 16 26 29.75 1008 10 16 0.00 0.00
6:53 pm 18:53 Sunny 77 25 54 12.2 45 45 S 16 26 29.72 1006 10 16 0.00 0.00
7:53 pm 19:53 Sunny 74 23.3 54 12.2 50 50 S 12 19 29.71 1006 10 16 0.00 0.00
8:53 pm 20:53 Clear 72 22.2 54 12.2 53 53 S 13 20 29.67 1005 10 16 0.00 0.00
9:53 pm 21:53 Clear 71 21.7 54 12.2 55 55 S 14 22 29.67 1005 10 16 0.00 0.00
10:53 pm 22:53 Clear 68 20 54 12.2 61 61 S 10 17 29.66 1004 10 16 0.00 0.00
11:53 pm 23:53 Clear 68 20 54 12.2 61 61 S 12 19 29.65 1004 10 16 0.00 0.00

Powered by AerisWeather